Flag for Canada Weather past 2 weeks in Kamloops, British Columbia, Canada

Now
37 °F

Light rain. Overcast.


Feels Like: 30 °F
Forecast: 32 / 41 °F
Wind: 10 mph from East

Location: Kamloops

Current Time: Dec 21, 2014 at 3:41:37 AM

Latest Report: Dec 21, 2014 at 3:00 AM


Visibility: 40 mi

Pressure: 29.45 "Hg

Humidity: 87%

Dew point: 34 °F

Location of KamloopsLocation

Historic Weather in Kamloops — Graph

°F

Kamloops temperature yesterday

Maximum temperature yesterday: 43 °F (at 12:00 PM)
Minimum temperature yesterday: 36 °F (at 12:00 AM)
Average temperature yesterday: 39 °F

Past Weeks' High & Low Weather Summary

 TemperatureHumidityPressure
High59 °F (Dec 10, 1:00 PM)100% (Dec 7, 7:00 AM)30.40 "Hg (Dec 7, 7:00 AM)
Low25 °F (Dec 16, 7:00 AM)44% (Dec 11, 1:00 AM)29.22 "Hg (Dec 10, 8:00 PM)
Average38 °F79%29.93 "Hg
* Reported Dec 6 2:00 AM — Dec 21 2:00 AM, Kamloops, Weather by CustomWeather, © 2014

Note: Actual official high and low records may vary slightly from our data, if they occured in-between our weather recording intervals... More about our weather records

Advertising

Kamloops weather history for previous 24 hours

 ConditionsComfort  
Time TempWeatherWind HumidityBarometerVisibility
2:00 AM
Dec 21
37 °FLight rain. Overcast.10 mph87%29.42 "Hg40 mi
1:00 AM39 °FPartly cloudy.10 mph75%29.37 "Hg40 mi
12:00 AM39 °FPartly cloudy.15 mph81%29.34 "Hg40 mi
11:00 PM
Dec 20
39 °FPassing clouds.15 mph81%29.33 "Hg40 mi
10:00 PM41 °FMostly cloudy.18 mph76%29.33 "Hg40 mi
9:00 PM39 °FMostly cloudy.10 mph81%29.36 "Hg40 mi
8:00 PM39 °FMostly cloudy.12 mph81%29.39 "Hg40 mi
7:00 PM41 °FMostly cloudy.9 mph76%29.42 "Hg40 mi
6:47 PM41 °FMostly cloudy.10 mph76%29.42 "Hg40 mi
6:00 PM41 °FOvercast.12 mph70%29.44 "Hg40 mi
5:00 PM41 °FMostly cloudy.13 mph70%29.48 "Hg40 mi
4:00 PM43 °FMostly cloudy.15 mph66%29.51 "Hg40 mi
3:00 PM43 °FBroken clouds.9 mph66%29.54 "Hg40 mi
2:00 PM43 °FBroken clouds.22 mph66%29.55 "Hg40 mi
1:00 PM43 °FPartly sunny.16 mph66%29.60 "Hg40 mi
12:00 PM43 °FPartly sunny.14 mph66%29.63 "Hg40 mi
11:00 AM41 °FBroken clouds.14 mph70%29.68 "Hg40 mi
10:00 AM41 °FPartly sunny.10 mph66%29.70 "Hg40 mi
9:00 AM39 °FCloudy.8 mph75%29.72 "Hg40 mi
8:00 AM37 °FMostly cloudy.9 mph81%29.73 "Hg40 mi
7:00 AM37 °FMostly cloudy.8 mph75%29.76 "Hg40 mi
6:00 AM37 °FMostly cloudy.6 mph75%29.80 "Hg40 mi
5:00 AM36 °FOvercast.9 mph81%29.82 "Hg40 mi
4:00 AM36 °FOvercast.9 mph87%29.84 "Hg40 mi
3:00 AM37 °FMostly cloudy.12 mph81%29.85 "Hg40 mi
Weather by CustomWeather, © 2014

See weather overviewHow to use our weather pages